Regional Weather Roundup
Issued by NWS

Home | Current Version | Previous Version | Graphics & Text | Print | Product List | Glossary On
Versions: 1 2 3 4 5 6 7 8 9 10 11 12 13 14 15 16 17 18 19 20 21 22 23 24 25 26 27 28 29 30 31 32 33 34 35 36 37 38 39 40 41 42 43 44 45 46 47 48 49 50
000
ASUS43 KMPX 260301
RWRMN
WEATHER ROUNDUP FOR MINNESOTA
NATIONAL WEATHER SERVICE TWIN CITIES/CHANHASSEN MN
1000 PM CDT MON JUL 25 2016


NOTE: "FAIR" INDICATES FEW OR NO CLOUDS BELOW 12,000 FEET WITH NO
SIGNIFICANT WEATHER AND/OR OBSTRUCTIONS TO VISIBILITY. N/A MEANS
CURRENT SKY AND/OR WEATHER CONDITIONS ARE NOT AVAILABLE.

MNZ060>063-068>070-260400-
   Twin Cities Metro

CITY           SKY/WX    TMP DP  RH WIND       PRES   REMARKS
TWIN CITIES    CLEAR     80  63  55 W3        30.03R
ST PAUL        CLEAR     79  63  57 SW5       30.03R
CRYSTAL        CLEAR     77  62  59 SW3       30.02R
BLAINE         CLEAR     75  64  69 SW3       30.03R
LAKEVILLE      CLEAR     70  66  88 CALM      30.04S
EDEN PRAIRIE   CLEAR     78  64  61 SW3       30.03R
LAKEVILLE      CLEAR     70  66  88 CALM      30.04S
SOUTH ST PAUL  CLEAR     77  64  63 W3        30.03S
LAKE ELMO      FAIR      72  68  88 CALM      30.04S
$$
MNZ001>005-007-008-013>017-022>024-027-028-260400-
   Northwest Minnesota

CITY           SKY/WX    TMP DP  RH WIND       PRES   REMARKS
HALLOCK        CLOUDY    73  70  88 CALM      29.92R
ROSEAU         CLEAR     70  64  83 NW3       29.95R
WARROAD        CLEAR     70  66  88 CALM      29.96R
THIEF RVR FALL PTCLDY    74  68  81 E7        29.95R
CROOKSTON      CLEAR     77  70  78 SE8       29.91S
FOSSTON        PTCLDY    73  66  78 SE6       29.96S
DETROIT LAKES  CLEAR     75  66  73 S5        29.99S
MOORHEAD       CLEAR     75  66  73 SE7       29.93S
PARK RAPIDS    CLEAR     75  67  76 S5        29.99S
MAHNOMEN       MOCLDY    74  67  80 S5        29.96S
$$
MNZ006-009>011-018-025>026-260400-
   North Central Minnesota

CITY           SKY/WX    TMP DP  RH WIND       PRES   REMARKS
BAUDETTE       CLEAR     69  66  90 CALM      29.96R
FLAG ISLAND    CLEAR     75  61  60 W6        29.94R
INTL FALLS     CLEAR     64  61  90 CALM      29.96R
WASKISH        PTCLDY    70  66  88 CALM      29.97R
BIG FORK       CLEAR     66  64  94 CALM      29.99R
LONGVILLE      CLEAR     68  66  94 CALM      30.00S
GRAND RAPIDS   CLEAR     69  66  90 S5        30.02R
ORR            CLEAR     70  61  73 CALM      29.96R
COOK           CLEAR     66  63  88 CALM      29.99R
WALKER         FAIR      71  65  83 S3        29.99S
$$
MNZ012-019>021-037-260400-
   Northeast Minnesota

CITY           SKY/WX    TMP DP  RH WIND       PRES   REMARKS
DULUTH         CLEAR     70  64  81 W7        30.00S
ELY            CLEAR     70  61  73 CALM      29.99R
HIBBING        CLEAR     63  62  97 CALM      30.00R
EVELETH        CLEAR     64  61  90 CALM      30.01R
DULUTH HARBOR  CLEAR     77  68  73 SW6       29.97S
TWO HARBORS    CLEAR     72  64  78 NW3       29.97R
SILVER BAY     CLEAR     68  63  83 CALM      29.96S
GRAND MARAIS     N/A     58  56  93 CALM      29.94R
G MARAIS ARPRT CLEAR     63  55  77 SW3       30.01R
$$
MNZ029>031-032-039>041-046>048-054>057-064-260400-
   West Central Minnesota

CITY           SKY/WX    TMP DP  RH WIND       PRES   REMARKS
FERGUS FALLS   CLEAR     75  64  69 S9        29.97S
WHEATON        CLEAR     77  66  69 S9        29.98S
MORRIS         CLEAR     72  66  83 S8        29.99S
ALEXANDRIA     MOCLDY    76  65  68 S9        30.03R
ELBOW LAKE     FAIR      72  66  81 S9        29.99S
WADENA         CLEAR     72  66  83 S5        30.00S
GLENWOOD       CLEAR     70  66  88 S6        30.04R
APPLETON       CLEAR     75  64  69 S6        30.00S
BENSON         CLEAR     72  64  78 S6        30.02R
ORTONVILLE     CLEAR     73  64  73 CALM      30.00R
MADISON        CLEAR     70  64  83 S7        30.01S
WILLMAR        FAIR      73  70  88 CALM      30.05R
$$
MNZ033>034-036-042>043-049>051-058-059-260400-
   Central Minnesota

CITY           SKY/WX    TMP DP  RH WIND       PRES   REMARKS
ST CLOUD       CLEAR     71  68  90 SE3       30.02S
SAUK CENTRE    FAIR      70  67  90 S5        30.03S
PAYNESVILLE    CLEAR     74  67  77 S3        30.04R
AITKIN         CLEAR     70  64  83 CALM      30.00S
PINE RIVER     CLEAR     70  64  83 CALM      30.04R
BRAINERD       CLEAR     71  65  81 CALM      30.01S
STAPLES        CLEAR     72  64  78 S5        30.01S
LONG PRAIRIE   FAIR      70  66  88 SE3       30.03R
LITTLE FALLS   CLEAR     72  64  78 CALM      30.02S
LITCHFIELD     CLEAR     73  72  94 CALM      30.05R
BUFFALO        CLEAR     74  66  75 CALM      30.04S
MAPLE LAKE     CLEAR     71  69  92 CALM      30.04S
HUTCHINSON     CLOUDY    72  70  93 CALM      30.05R
$$
MNZ037-044-045-052-053-260400-
   East Central Minnesota

CITY           SKY/WX    TMP DP  RH WIND       PRES   REMARKS
PRINCETON      CLEAR     75  66  73 CALM      30.03R
MORA           CLEAR     70  64  83 CALM      30.04R
CAMBRIDGE      CLEAR     75  63  64 CALM      30.01S
RUSH CITY      CLEAR     68  66  92 CALM      30.02S
MOOSE LAKE     CLEAR     68  64  88 CALM      29.99S
HINCKLEY       FAIR      68  68 100 CALM      30.01S
CLOQUET        CLEAR     72  61  68 SW5       30.01R
MCGREGOR       CLEAR     73  64  73 SW3       30.02R
$$
MNZ071>073-080-081-089-090-097-098-260400-
   Southwest Minnesota

CITY           SKY/WX    TMP DP  RH WIND       PRES   REMARKS
MONTEVIDEO     CLEAR     73  66  78 SW3       30.04R
GRANITE FALLS  CLEAR     73  70  91 S6        30.04S
CANBY          CLEAR     74  64  69 S5        30.04R
MARSHALL       CLEAR     74  67  78 S6        30.05R
REDWOOD FALLS  CLEAR     76  66  71 S6        30.03R
OLIVIA         CLEAR     73  68  83 S3        30.04R
PIPESTONE      CLEAR     72  66  83 S5        30.08R
WINDOM         CLEAR     75  66  73 CALM      30.07R
WORTHINGTON    CLEAR     72  66  81 S5        30.09R
JACKSON        CLEAR     73  64  73 S3        30.09R
TRACY          CLEAR     74  66  75 S6        30.06R
SLAYTON        CLEAR     70  66  86 S5        30.08R
$$
MNZ065>067-074>077-082>085-091>093-260400-
   South Central Minnesota

CITY           SKY/WX    TMP DP  RH WIND       PRES   REMARKS
MANKATO        CLEAR     75  64  69 SE5       30.05S
NEW ULM        CLEAR     73  66  78 CALM      30.05R
ST JAMES       CLEAR     70  64  83 CALM      30.06S
FAIRMONT       CLEAR     73  66  78 CALM      30.06R
GLENCOE        CLEAR     75  70  86 CALM      30.04R
FARIBAULT      CLEAR     68  66  94 CALM      30.06S
OWATONNA       CLEAR     70  64  83 CALM      30.06S
WASECA         CLEAR     72  68  88 CALM      30.07S
ALBERT LEA     CLEAR     70  66  88 CALM      30.07S
$$
MNZ078>079-086>088-094>096-260400-
   Southeast Minnesota

CITY           SKY/WX    TMP DP  RH WIND       PRES   REMARKS
ROCHESTER      CLEAR     70  66  87 W7        30.07R
RED WING       CLEAR     72  68  88 CALM      30.02S
STANTON        CLEAR     72  66  83 CALM      30.03S
DODGE CENTER   CLEAR     70  63  78 CALM      30.07S
WINONA         CLEAR     72  66  83 CALM      30.04R
AUSTIN         CLEAR     72  64  78 CALM      30.07R
PRESTON        CLEAR     70  64  80 W3        30.08R
$$
ABBREVIATIONS USED IN REMARKS
   TC - TEMPERATURES IN CELSIUS
  WCI - WIND CHILL INDEX
   HX - HEAT INDEX
  VSB - VISIBILITY
$$




USA.gov is the U.S. government's official web portal to all federal, state and local government web resources and services.